Weather History for Almeria, Spain

Change the Weather History Date:

Saturday, December 22, 2012

  Actual Average Record
Temperature  
Mean Temperature 60 °F -  
Max Temperature 67 °F 59 °F 67 °F (2012)
Min Temperature 53 °F 47 °F 42 °F (2006)
Degree Days  
Heating Degree Days 5    
Growing Degree Days 10 (Base 50)    
Moisture  
Dew Point 54 °F    
Average Humidity 75    
Maximum Humidity 88    
Minimum Humidity 59    
Precipitation  
Precipitation 0.00 in 0.03 in - ()
Sea Level Pressure  
Sea Level Pressure 30.23 in    
Wind  
Wind Speed 3 mph ()    
Max Wind Speed 10 mph    
Max Gust Speed -    
Visibility 9.0 miles    
Events      
Averages and records for this station are not official NWS values.
T = Trace of Precipitation, MM = Missing Value Source: Averaged Metar Reports

Daily Weather History Graph

Daily Weather History Graph

Search for Another Location

Airport:

Trip Planner

Search our weather history database for the weather conditions in past years. The results will help you decide how hot, cold, wet, or windy it might be!

Date:

Astronomy

Dec. 22, 2012 Rise Set
Actual Time 8:19 AM CET 5:57 PM CET
Civil Twilight 7:50 AM CET 6:26 PM CET
Nautical Twilight 7:17 AM CET 6:58 PM CET
Astronomical Twilight 6:46 AM CET 7:30 PM CET
Moon 2:02 PM CET (12/22) 2:55 AM CET (12/22)
Length of Visible Light 10h 36m
Length of Day
9h 38m
Waxing Gibbous, 71% of the Moon is Illuminated
Dec 22
Waxing Gibbous
Dec 28
Full
Jan 5
Last Quarter
Jan 11
New
Jan 19
First Quarter

Hourly Weather History & Observations

Time (CET) Temp. Dew Point Humidity Pressure Visibility Wind Dir Wind Speed Gust Speed Precip Events Conditions
1:00 AM 56 °F 53 °F 86% 30.20 in - WNW 2.3 mph - -  
5:00 AM 59.0 °F 50.0 °F 72% 30.18 in - NNE 9.2 mph - N/A   Clear
5:30 AM 62.6 °F 50.0 °F 63% 30.18 in - North 9.2 mph - N/A   Clear
6:00 AM 60.8 °F 48.2 °F 63% 30.18 in - North 10.4 mph - N/A   Clear
6:30 AM 62.6 °F 48.2 °F 59% 30.18 in - North 6.9 mph - N/A   Clear
7:00 AM 57 °F 47 °F 61% 30.21 in 9 mi NNE 2.3 mph - -  
7:00 AM 59.0 °F 48.2 °F 67% 30.18 in - Variable 1.2 mph - N/A   Clear
7:30 AM 57.2 °F 50.0 °F 77% 30.21 in - Variable 1.2 mph - N/A   Clear
8:00 AM 55.4 °F 48.2 °F 77% 30.21 in - Calm Calm - N/A   Clear
9:00 AM 55.4 °F 50.0 °F 82% 30.24 in - NNW 4.6 mph - N/A   Clear
9:30 AM 59.0 °F 51.8 °F 77% 30.24 in - Variable 1.2 mph - N/A   Clear
10:00 AM 64.4 °F 55.4 °F 73% 30.27 in - Calm Calm - N/A   Clear
10:30 AM 64.4 °F 53.6 °F 68% 30.27 in - Calm Calm - N/A   Clear
11:00 AM 68.0 °F 53.6 °F 60% 30.27 in - Calm Calm - N/A   Clear
11:30 AM 66.2 °F 53.6 °F 64% 30.27 in - Variable 1.2 mph - N/A   Clear
12:00 PM 68.0 °F 53.6 °F 60% 30.27 in - Variable 1.2 mph - N/A   Clear
12:30 PM 66.2 °F 55.4 °F 68% 30.27 in - SSW 3.5 mph - N/A   Clear
1:00 PM 65 °F 56 °F 65% 30.27 in 31 mi SSW 4.6 mph - -  
1:00 PM 64.4 °F 57.2 °F 77% 30.27 in - SSW 4.6 mph - N/A   Clear
1:30 PM 64.4 °F 57.2 °F 77% 30.24 in - SSW 4.6 mph - N/A   Clear
2:00 PM 66.2 °F 59.0 °F 78% 30.24 in - Variable 1.2 mph - N/A   Clear
2:30 PM 66.2 °F 59.0 °F 78% 30.24 in - Variable 1.2 mph - N/A   Clear
3:00 PM 66.2 °F 60.8 °F 83% 30.21 in - Variable 1.2 mph - N/A   Clear
3:30 PM 66.2 °F 60.8 °F 83% 30.21 in - Calm Calm - N/A   Clear
4:00 PM 66.2 °F 60.8 °F 83% 30.21 in - Variable 1.2 mph - N/A   Clear
4:30 PM 64.4 °F 60.8 °F 88% 30.21 in - Variable 1.2 mph - N/A   Clear
5:00 PM 64.4 °F 59.0 °F 83% 30.21 in - Variable 2.3 mph - N/A   Clear
5:30 PM 64.4 °F 57.2 °F 77% 30.21 in - Variable 1.2 mph - N/A   Clear
6:00 PM 64.4 °F 55.4 °F 73% 30.24 in - Variable 1.2 mph - N/A   Clear
6:30 PM 62.6 °F 55.4 °F 77% 30.24 in - Calm Calm - N/A   Clear
7:00 PM 60 °F 53 °F 71% 30.25 in 25 mi NW 1.2 mph - -  
7:00 PM 60.8 °F 55.4 °F 82% 30.24 in - Variable 1.2 mph - N/A   Clear
7:30 PM 59.0 °F 53.6 °F 82% 30.24 in - NNW 5.8 mph - N/A   Clear
8:00 PM 59.0 °F 53.6 °F 82% 30.24 in - Variable 2.3 mph - N/A   Clear
8:30 PM 59.0 °F 53.6 °F 82% 30.24 in - NNW 4.6 mph - N/A   Clear
9:00 PM 60.8 °F 53.6 °F 77% 30.24 in - NNW 6.9 mph - N/A   Clear
9:30 PM 60.8 °F 53.6 °F 77% 30.24 in - NNW 4.6 mph - N/A   Clear
10:00 PM 59.0 °F 53.6 °F 82% 30.24 in - NNW 5.8 mph - N/A   Clear
10:30 PM 59.0 °F 53.6 °F 82% 30.24 in - Variable 2.3 mph - N/A   Clear